"2010-12-05 00:00:00",394861,5.88,100.7,6.343,1.135,4.126,99.85787,-1.062,0.024,48.8,0,109.5,13.58,-0.31,62.7
"2010-12-05 00:00:30",394862,6.625,104.4,3.918,0.569,5.79,99.8689,-1.034,0.087,49.07,0,109.5,13.58,-0.29,66.4
"2010-12-05 00:01:00",394863,6.606,106.1,3.989,0.644,5.545,99.87541,-1.017,0.102,49.24,0,109.5,13.58,-0.27,68.1
"2010-12-05 00:01:30",394864,6.198,105.7,5.072,1.026,4.319,99.88844,-0.984,0.101,49.52,0,109.5,13.58,-0.24,67.7
"2010-12-05 00:02:00",394865,6.028,100.2,6.787,1.202,2.836,99.89014,-0.98,-0.06,49.1,0,109.5,13.58,-0.23,62.2
"2010-12-05 00:02:30",394866,5.634,98.5,6.083,1.19,2.576,99.88986,-0.98,-0.045,49.2,0,109.5,13.58,-0.23,60.5
"2010-12-05 00:03:00",394867,6.102,97.5,6.099,1.246,2.954,99.89014,-0.98,0.033,49.3,0,109.5,13.58,-0.23,59.5
"2010-12-05 00:03:30",394868,7.055,100.1,4.164,0.928,5.004,99.89099,-0.977,0.124,48.7,0,109.5,13.58,-0.23,62.1
"2010-12-05 00:04:00",394869,7.032,96.5,5.021,0.988,4.082,99.89297,-0.972,0.097,48.01,0,109.5,13.58,-0.22,58.5
"2010-12-05 00:04:30",394870,6.779,95.1,5.567,1.139,3.64,99.87598,-1.016,0.09,47.75,0,109.5,13.58,-0.27,57.1
"2010-12-05 00:05:00",394871,6.848,97.2,4.346,0.952,4.072,99.8604,-1.055,0.126,47.8,0,109.5,13.58,-0.31,59.2
"2010-12-05 00:05:30",394872,6.555,95.5,5.661,1.134,2.86,99.85757,-1.063,-0.041,47.59,0,109.5,13.58,-0.31,57.5
"2010-12-05 00:06:00",394873,6.547,96.1,5.377,1.099,3.041,99.83605,-1.118,-0.074,47.57,0,109.5,13.58,-0.37,58.1
"2010-12-05 00:06:30",394874,5.776,91.9,5.952,1.19,1.95,99.82925,-1.135,-0.077,47.74,0,109.5,13.58,-0.39,53.9
"2010-12-05 00:07:00",394875,6.312,93.9,5.687,1.169,3.406,99.8287,-1.136,-0.03,47.87,0,109.5,13.59,-0.39,55.9
"2010-12-05 00:07:30",394876,6.621,96.7,4.054,0.913,4.311,99.82529,-1.145,0.019,48.08,0,109.5,13.58,-0.40,58.7
"2010-12-05 00:08:00",394877,6.682,97.2,2.158,0.847,4.195,99.80943,-1.185,-0.011,48.15,0,109.5,13.58,-0.44,59.2
"2010-12-05 00:08:30",394878,6.193,93.8,5.969,1.147,3.271,99.79868,-1.213,-0.081,48.04,0,109.5,13.58,-0.47,55.8
"2010-12-05 00:09:00",394879,5.37,88.5,7.598,1.387,2.622,99.79613,-1.219,-0.135,48.02,0,109.5,13.58,-0.47,50.5
"2010-12-05 00:09:30",394880,5.434,86,5.452,1.12,3.539,99.79613,-1.219,-0.141,47.72,0,109.5,13.58,-0.47,48.0
"2010-12-05 00:10:00",394881,5.611,82.6,5.961,1.16,3.008,99.77715,-1.268,-0.173,47.29,0,109.5,13.58,-0.52,44.6
"2010-12-05 00:10:30",394882,5.942,82.5,5.788,1.132,3.432,99.76214,-1.306,-0.187,47.07,0,109.5,13.58,-0.56,44.5
"2010-12-05 00:11:00",394883,6.363,84.8,3.998,0.741,4.19,99.73864,-1.366,-0.15,47.18,0,109.5,13.58,-0.62,46.8
"2010-12-05 00:11:30",394884,6.149,85.6,1.349,0.769,4.203,99.72816,-1.393,-0.188,47.32,0,109.5,13.58,-0.65,47.6
"2010-12-05 00:12:00",394885,6.15,87,3.084,0.636,4.168,99.71486,-1.426,-0.193,47.47,0,109.5,13.58,-0.68,49.0
"2010-12-05 00:12:30",394886,6.086,86.9,3.445,0.755,3.978,99.69475,-1.478,-0.238,47.6,0,109.5,13.58,-0.73,48.9
"2010-12-05 00:13:00",394887,5.403,83.2,6.122,1.234,1.996,99.69419,-1.479,-0.428,47.44,0,109.5,13.58,-0.73,45.2
"2010-12-05 00:13:30",394888,4.435,79.55,4.74,0.824,0.368,99.66813,-1.546,-0.44,47.64,0,109.5,13.59,-0.80,41.6
"2010-12-05 00:14:00",394889,5.825,85.2,6.327,1.165,2.4,99.6602,-1.566,-0.577,47.57,0,109.5,13.59,-0.82,47.2
"2010-12-05 00:14:30",394890,6.635,89.6,5.36,0.933,4.232,99.64463,-1.605,-0.358,47.92,0,109.5,13.59,-0.86,51.6
"2010-12-05 00:15:00",394891,6.772,92.5,3.973,0.782,4.966,99.62622,-1.652,-0.385,48.09,0,109.5,13.59,-0.91,54.5
"2010-12-05 00:15:30",394892,6.797,90.5,4.048,0.64,4.949,99.62622,-1.652,-0.429,48.28,0,109.5,13.59,-0.91,52.5
"2010-12-05 00:16:00",394893,6.871,91.5,3.91,0.663,4.805,99.61716,-1.675,-0.443,48.44,0,109.5,13.59,-0.93,53.5
"2010-12-05 00:16:30",394894,7.368,94.7,3.563,0.722,4.416,99.60301,-1.711,-0.485,48.39,0,109.5,13.59,-0.97,56.7
"2010-12-05 00:17:00",394895,7.768,98,3.88,0.553,3.775,99.59225,-1.739,-0.512,48.49,0,109.5,13.59,-0.99,60.0
"2010-12-05 00:17:30",394896,7.485,96.1,4.048,0.803,3.14,99.59225,-1.739,-0.569,48.63,0,109.5,13.59,-0.99,58.1
"2010-12-05 00:18:00",394897,5.908,89.2,6.383,1.129,0.953,99.59225,-1.739,-0.709,48.81,0,109.5,13.59,-0.99,51.2
"2010-12-05 00:18:30",394898,5.855,88,5.926,1.108,1.084,99.59112,-1.742,-0.771,48.9,0,109.5,13.59,-1.00,50.0
"2010-12-05 00:19:00",394899,6.159,88.2,4.897,1.046,2.732,99.59196,-1.74,-0.614,49.2,0,109.5,13.59,-0.99,50.2
"2010-12-05 00:19:30",394900,6.201,87,6.066,1.094,3.813,99.59225,-1.739,-0.575,49.28,0,109.5,13.59,-0.99,49.0
"2010-12-05 00:20:00",394901,6.522,88.9,5.137,0.836,4.534,99.59225,-1.739,-0.578,49.33,0,109.5,13.59,-0.99,50.9
"2010-12-05 00:20:30",394902,6.625,90,5.278,0.86,4.767,99.59225,-1.739,-0.537,49.36,0,109.5,13.6,-0.99,52.0
"2010-12-05 00:21:00",394903,6.913,92.4,4.301,0.71,4.938,99.59253,-1.738,-0.528,49.26,0,109.5,13.6,-0.99,54.4
"2010-12-05 00:21:30",394904,7.191,94.8,3.258,0.658,4.331,99.59338,-1.736,-0.532,49.31,0,109.5,13.59,-0.99,56.8
"2010-12-05 00:22:00",394905,7.657,97.1,3.546,0.748,4.053,99.59225,-1.739,-0.527,49.28,0,109.5,13.59,-0.99,59.1
"2010-12-05 00:22:30",394906,8.09,98.3,3.799,0.543,3.602,99.58885,-1.748,-0.561,49.13,0,109.5,13.59,-1.00,60.3
"2010-12-05 00:23:00",394907,7.918,99.3,1.156,0.757,3.417,99.56223,-1.815,-0.6,49.27,0,109.5,13.59,-1.07,61.3
"2010-12-05 00:23:30",394908,7.793,98.9,2.484,0.774,3.433,99.56081,-1.819,-0.602,49.84,0,109.5,13.59,-1.07,60.9
"2010-12-05 00:24:00",394909,8.04,97.7,3.545,0.651,3.494,99.54863,-1.85,-0.636,49.94,0,109.5,13.59,-1.10,59.7
"2010-12-05 00:24:30",394910,7.99,95.5,5.034,0.891,2.602,99.52853,-1.901,-0.717,49.26,0,109.5,13.59,-1.16,57.5
"2010-12-05 00:25:00",394911,7.182,91.8,5.669,1.202,1.967,99.52201,-1.918,-0.761,49.31,0,109.5,13.59,-1.17,53.8
"2010-12-05 00:25:30",394912,7.244,91.1,5.621,1.136,2.029,99.49737,-1.981,-0.834,49.35,0,109.5,13.59,-1.24,53.1
"2010-12-05 00:26:00",394913,7.87,94.9,3.429,1.024,3.559,99.49538,-1.986,-0.769,49.64,0,109.5,13.59,-1.24,56.9
"2010-12-05 00:26:30",394914,8.07,93.2,5.805,1.112,3.236,99.4917,-1.995,-0.852,49.5,0,109.5,13.59,-1.25,55.2
"2010-12-05 00:27:00",394915,8.47,95.3,4.471,0.88,3.812,99.46847,-2.054,-0.826,49.67,0,109.5,13.59,-1.31,57.3
"2010-12-05 00:27:30",394916,8.71,96.5,3.456,0.657,4.436,99.4676,-2.057,-0.823,49.78,0,109.5,13.59,-1.31,58.5
"2010-12-05 00:28:00",394917,8.54,96.4,3.323,0.67,4.241,99.46022,-2.075,-0.851,49.94,0,109.5,13.59,-1.33,58.4
"2010-12-05 00:28:30",394918,8.26,95.7,3.357,0.671,4.156,99.44492,-2.114,-0.886,50.13,0,109.5,13.59,-1.37,57.7
"2010-12-05 00:29:00",394919,7.92,94.8,4.085,0.764,3.957,99.43869,-2.13,-0.904,50.34,0,109.5,13.59,-1.39,56.8
"2010-12-05 00:29:30",394920,7.625,94.9,2.439,0.738,3.862,99.44094,-2.125,-0.896,50.64,0,109.5,13.59,-1.38,56.9
"2010-12-05 00:30:00",394921,7.48,93.6,3.844,0.486,3.654,99.44235,-2.121,-0.922,50.74,0,109.5,13.6,-1.38,55.6
"2010-12-05 00:30:30",394922,7.325,95.1,2.742,0.823,3.273,99.44517,-2.114,-0.916,50.83,0,109.5,13.6,-1.37,57.1
"2010-12-05 00:31:00",394923,7.718,96.6,3.469,0.498,3.336,99.44714,-2.109,-0.93,50.76,0,109.4,13.6,-1.36,58.6
"2010-12-05 00:31:30",394924,6.627,93,6.069,1.141,1.311,99.44657,-2.11,-1.074,50.64,0,109.4,13.6,-1.37,55.0
"2010-12-05 00:32:00",394925,5.861,89.9,4.322,0.886,-0.325,99.44741,-2.108,-1.13,50.83,0,109.5,13.6,-1.36,51.9
"2010-12-05 00:32:30",394926,7.428,97.3,5.615,1.043,2.291,99.44826,-2.106,-1.005,51.12,0,109.4,13.6,-1.36,59.3
"2010-12-05 00:33:00",394927,7.869,98.7,3.918,0.895,3.304,99.44798,-2.107,-0.959,51.01,0,109.5,13.6,-1.36,60.7
"2010-12-05 00:33:30",394928,7.559,100.6,4.125,0.982,3.562,99.44798,-2.107,-0.996,51.08,0,109.5,13.6,-1.36,62.6
"2010-12-05 00:34:00",394929,7.652,98.3,4.296,0.794,4.043,99.4491,-2.104,-0.96,51.51,0,109.5,13.6,-1.36,60.3
"2010-12-05 00:34:30",394930,7.808,96.4,3.968,0.613,3.913,99.44826,-2.106,-0.955,51.31,0,109.4,13.6,-1.36,58.4
"2010-12-05 00:35:00",394931,7.01,99.4,3.843,0.778,3.78,99.44798,-2.107,-0.971,51.65,0,109.4,13.6,-1.36,61.4
"2010-12-05 00:35:30",394932,6.602,96.7,2.956,0.692,3.534,99.46695,-2.058,-0.947,51.92,0,109.4,13.6,-1.31,58.7
"2010-12-05 00:36:00",394933,6.441,93.9,5.026,0.784,3.02,99.48367,-2.016,-0.913,51.85,0,109.4,13.6,-1.27,55.9
"2010-12-05 00:36:30",394934,4.878,88.1,4.332,0.821,-0.469,99.51255,-1.942,-1.111,51.5,0,109.4,13.6,-1.20,50.1
"2010-12-05 00:37:00",394935,4.423,85.7,1.515,0.094,-0.625,99.52047,-1.922,-1.022,51.44,0,109.5,13.64,-1.18,47.7
"2010-12-05 00:37:30",394936,5.623,90.8,5.859,1.193,2.616,99.52273,-1.916,-0.973,51.29,0,109.4,13.6,-1.17,52.8
"2010-12-05 00:38:00",394937,6.043,91.3,3.718,0.756,4.728,99.54002,-1.872,-0.785,51.33,0,109.4,13.61,-1.13,53.3
"2010-12-05 00:38:30",394938,6.287,90.4,3.104,0.542,4.768,99.53463,-1.886,-0.761,51.33,0,109.4,13.61,-1.14,52.4
"2010-12-05 00:39:00",394939,6.602,90.4,3.735,0.687,4.555,99.52188,-1.918,-0.766,51.29,0,109.5,13.61,-1.17,52.4
"2010-12-05 00:39:30",394940,6.772,89.5,3.58,0.774,4.185,99.52018,-1.923,-0.777,51.21,0,109.4,13.6,-1.18,51.5
"2010-12-05 00:40:00",394941,6.953,90.4,3.764,0.506,3.986,99.51083,-1.946,-0.811,51.38,0,109.4,13.6,-1.20,52.4
"2010-12-05 00:40:30",394942,6.861,88.9,5.88,1.005,2.896,99.48845,-2.003,-0.895,51.16,0,109.4,13.6,-1.26,50.9
"2010-12-05 00:41:00",394943,6.476,88.1,6.145,1.184,2.227,99.48901,-2.002,-0.926,51.27,0,109.4,13.6,-1.26,50.1
"2010-12-05 00:41:30",394944,6.645,88.1,6.348,1.186,2.158,99.4791,-2.027,-0.982,51.19,0,109.4,13.6,-1.28,50.1
"2010-12-05 00:42:00",394945,6.713,87.9,6.046,1.063,3.169,99.46692,-2.058,-0.963,51.49,0,109.4,13.6,-1.31,49.9
"2010-12-05 00:42:30",394946,6.807,87.3,6.149,1.22,2.71,99.45786,-2.081,-0.994,51.19,0,109.4,13.6,-1.34,49.3
"2010-12-05 00:43:00",394947,6.738,87.8,4.29,0.881,4.085,99.45586,-2.086,-0.948,51.34,0,109.4,13.6,-1.34,49.8
"2010-12-05 00:43:30",394948,6.765,87.8,4.698,0.942,4.243,99.45502,-2.089,-0.926,51.31,0,109.4,13.6,-1.34,49.8
"2010-12-05 00:44:00",394949,7.377,89.1,3.961,0.672,4.303,99.45531,-2.088,-0.908,51.3,0,109.4,13.6,-1.34,51.1
"2010-12-05 00:44:30",394950,7.568,91.4,3.556,0.653,4.141,99.45445,-2.09,-0.94,51.28,0,109.4,13.6,-1.35,53.4
"2010-12-05 00:45:00",394951,7.637,92.3,3.351,0.533,4.037,99.43008,-2.152,-0.958,51.33,0,109.4,13.6,-1.41,54.3
"2010-12-05 00:45:30",394952,7.939,90.9,3.8,0.668,3.724,99.42103,-2.175,-0.987,51.02,0,109.4,13.6,-1.43,52.9
"2010-12-05 00:46:00",394953,8.04,90.1,1.919,0.739,3.401,99.39157,-2.25,-1.038,50.33,0,109.4,13.6,-1.51,52.1
"2010-12-05 00:46:30",394954,8.02,91.6,1.701,0.733,3.437,99.38109,-2.277,-1.078,50.46,0,109.4,13.6,-1.53,53.6
"2010-12-05 00:47:00",394955,8.28,91.3,1.351,0.823,3.458,99.35757,-2.337,-1.097,50.48,0,109.4,13.61,-1.59,53.3
"2010-12-05 00:47:30",394956,8.38,91.3,1.45,0.832,3.573,99.34624,-2.366,-1.161,50.54,0,109.4,13.61,-1.62,53.3
"2010-12-05 00:48:00",394957,8.5,92.3,1.84,0.737,3.512,99.32188,-2.428,-1.192,50.71,0,109.4,13.61,-1.68,54.3
"2010-12-05 00:48:30",394958,8.81,93.5,2.05,0.845,3.514,99.32019,-2.432,-1.201,50.79,0,109.4,13.61,-1.69,55.5
"2010-12-05 00:49:00",394959,9.1,95.2,2.266,0.858,3.465,99.30971,-2.459,-1.246,50.81,0,109.4,13.61,-1.72,57.2
"2010-12-05 00:49:30",394960,9.38,97.7,2.759,0.724,3.642,99.28874,-2.512,-1.277,51.19,0,109.4,13.6,-1.77,59.7
"2010-12-05 00:50:00",394961,9.62,99.5,2.174,0.644,3.482,99.2862,-2.519,-1.3,51.72,0,109.4,13.61,-1.78,61.5
"2010-12-05 00:50:30",394962,9.68,99.7,2.419,0.749,3.496,99.28478,-2.522,-1.315,51.96,0,109.4,13.61,-1.78,61.7
"2010-12-05 00:51:00",394963,9.7,99.5,2.029,0.837,3.467,99.26127,-2.582,-1.35,51.88,0,109.4,13.61,-1.84,61.5
"2010-12-05 00:51:30",394964,9.64,100.1,1.971,0.826,3.682,99.25278,-2.604,-1.367,51.94,0,109.4,13.61,-1.86,62.1
"2010-12-05 00:52:00",394965,9.76,100,2.411,0.718,3.667,99.25193,-2.606,-1.391,52.18,0,109.4,13.61,-1.86,62.0
"2010-12-05 00:52:30",394966,9.61,99.2,1.642,0.841,3.698,99.24625,-2.621,-1.4,52.21,0,109.4,13.61,-1.88,61.2
"2010-12-05 00:53:00",394967,9.76,99.1,2.532,0.744,3.66,99.22728,-2.669,-1.445,52.17,0,109.4,13.61,-1.93,61.1
"2010-12-05 00:53:30",394968,9.62,98.2,2.665,0.761,3.73,99.21822,-2.692,-1.461,52.2,0,109.4,13.61,-1.95,60.2
"2010-12-05 00:54:00",394969,9.79,98.5,2.425,0.635,3.629,99.21822,-2.692,-1.494,52.14,0,109.4,13.61,-1.95,60.5
"2010-12-05 00:54:30",394970,9.7,99.1,1.661,0.809,3.532,99.20859,-2.717,-1.49,52.15,0,109.4,13.61,-1.97,61.1
"2010-12-05 00:55:00",394971,9.63,100.8,2.741,0.737,3.704,99.19187,-2.759,-1.525,52.56,0,109.4,13.61,-2.02,62.8
"2010-12-05 00:55:30",394972,9.47,103.3,2.55,0.65,3.805,99.18422,-2.779,-1.544,53.19,0,109.4,13.61,-2.04,65.3
"2010-12-05 00:56:00",394973,9.53,103.8,2.624,0.635,3.666,99.18422,-2.779,-1.557,53.42,0,109.4,13.61,-2.04,65.8
"2010-12-05 00:56:30",394974,9.44,103.4,3.293,0.649,3.733,99.18422,-2.779,-1.551,53.41,0,109.4,13.6,-2.04,65.4
"2010-12-05 00:57:00",394975,9.23,103.9,1.842,0.801,3.788,99.18422,-2.779,-1.586,53.44,0,109.4,13.6,-2.04,65.9
"2010-12-05 00:57:30",394976,9.22,103.2,2.696,0.794,3.742,99.17799,-2.795,-1.605,53.33,0,109.4,13.6,-2.05,65.2
"2010-12-05 00:58:00",394977,9.14,103.2,2.681,0.609,3.646,99.15788,-2.846,-1.605,53.49,0,109.4,13.6,-2.10,65.2
"2010-12-05 00:58:30",394978,9.2,102.3,1.933,0.831,3.561,99.15024,-2.865,-1.608,53.54,0,109.4,13.6,-2.12,64.3
"2010-12-05 00:59:00",394979,9.43,102.4,1.861,0.824,3.45,99.15024,-2.865,-1.634,53.7,0,109.4,13.6,-2.12,64.4
"2010-12-05 00:59:30",394980,9.55,101.7,1.991,0.829,3.6,99.15024,-2.865,-1.657,53.94,0,109.4,13.6,-2.12,63.7
"2010-12-05 01:00:00",394981,9.8,101.5,1.654,0.708,3.579,99.14938,-2.867,-1.673,54.14,0,109.4,13.6,-2.13,63.5
"2010-12-05 01:00:30",394982,9.89,100.9,2.66,0.758,3.593,99.1423,-2.885,-1.681,54.36,0,109.4,13.6,-2.14,62.9
"2010-12-05 01:01:00",394983,9.89,99.4,2.572,0.748,3.598,99.1256,-2.928,-1.704,54.36,0,109.4,13.61,-2.19,61.4
"2010-12-05 01:01:30",394984,9.77,98.2,3.344,0.647,3.747,99.11852,-2.946,-1.705,54.41,0,109.4,13.61,-2.20,60.2
"2010-12-05 01:02:00",394985,9.65,98.4,2.528,0.671,3.604,99.11624,-2.952,-1.727,54.52,0,109.4,13.62,-2.21,60.4
"2010-12-05 01:02:30",394986,9.57,98.8,2.882,0.809,3.548,99.11624,-2.952,-1.723,54.59,0,109.4,13.62,-2.21,60.8
"2010-12-05 01:03:00",394987,9.53,100.8,2.664,0.743,3.55,99.11624,-2.952,-1.746,54.71,0,109.4,13.62,-2.21,62.8
"2010-12-05 01:03:30",394988,9.53,103.7,1.768,0.731,3.661,99.11653,-2.951,-1.742,54.96,0,109.4,13.62,-2.21,65.7
"2010-12-05 01:04:00",394989,9.45,105,2.657,0.645,3.755,99.11709,-2.95,-1.766,55.18,0,109.4,13.62,-2.21,67.0
"2010-12-05 01:04:30",394990,9.42,105.3,2.695,0.737,3.787,99.11596,-2.953,-1.755,55.37,0,109.4,13.62,-2.21,67.3
"2010-12-05 01:05:00",394991,9.64,105.4,3.043,0.668,3.819,99.11653,-2.951,-1.775,55.5,0,109.4,13.62,-2.21,67.4
"2010-12-05 01:05:30",394992,9.59,105.2,1.569,0.809,3.94,99.11736,-2.949,-1.773,55.46,0,109.4,13.62,-2.21,67.2
"2010-12-05 01:06:00",394993,9.78,104.4,1.842,0.719,3.814,99.11793,-2.948,-1.764,55.4,0,109.4,13.62,-2.21,66.4
"2010-12-05 01:06:30",394994,9.7,103.4,2.718,0.769,3.858,99.11877,-2.945,-1.755,55.59,0,109.4,13.62,-2.20,65.4
"2010-12-05 01:07:00",394995,9.95,102.6,3.009,0.672,3.791,99.12074,-2.94,-1.763,55.45,0,109.4,13.62,-2.20,64.6
"2010-12-05 01:07:30",394996,9.99,103.1,2.492,0.72,3.916,99.12046,-2.941,-1.779,55.21,0,109.4,13.62,-2.20,65.1
"2010-12-05 01:08:00",394997,10.04,103.4,1.141,0.716,3.739,99.12102,-2.94,-1.767,55.12,0,109.4,13.62,-2.20,65.4
"2010-12-05 01:08:30",394998,9.99,103,2.509,0.727,3.746,99.12297,-2.935,-1.761,55.16,0,109.4,13.62,-2.19,65.0
"2010-12-05 01:09:00",394999,9.88,104.3,2.567,0.754,3.879,99.11699,-2.95,-1.775,55.18,0,109.4,13.62,-2.21,66.3
"2010-12-05 01:09:30",395000,9.91,104.7,2.591,0.775,4.012,99.11104,-2.965,-1.783,55.19,0,109.4,13.62,-2.22,66.7
"2010-12-05 01:10:00",395001,9.89,105.7,2.677,0.657,4.013,99.11243,-2.962,-1.788,55.26,0,109.4,13.62,-2.22,67.7
"2010-12-05 01:10:30",395002,9.84,105.6,3.34,0.626,4.002,99.11636,-2.952,-1.772,55.29,0,109.4,13.62,-2.21,67.6
"2010-12-05 01:11:00",395003,9.79,106.5,2.687,0.743,4.01,99.11663,-2.951,-1.782,55.33,0,109.4,13.62,-2.21,68.5
"2010-12-05 01:11:30",395004,9.87,106.6,2.603,0.735,4.135,99.11182,-2.963,-1.804,55.42,0,109.4,13.62,-2.22,68.6
"2010-12-05 01:12:00",395005,9.91,106.6,2.633,0.635,4.017,99.11295,-2.96,-1.788,55.58,0,109.4,13.62,-2.22,68.6
"2010-12-05 01:12:30",395006,9.86,105.1,2.092,0.811,3.908,99.11208,-2.962,-1.78,55.65,0,109.4,13.62,-2.22,67.1
"2010-12-05 01:13:00",395007,9.99,103.8,2.063,0.815,3.786,99.11038,-2.967,-1.805,55.52,0,109.4,13.62,-2.23,65.8
"2010-12-05 01:13:30",395008,10.12,102.7,1.634,0.828,3.826,99.10219,-2.988,-1.801,55.63,0,109.4,13.62,-2.25,64.7
"2010-12-05 01:14:00",395009,10.19,101.6,1.734,0.63,3.625,99.10218,-2.988,-1.818,55.7,0,109.4,13.62,-2.25,63.6
"2010-12-05 01:14:30",395010,10.09,100.2,2.561,0.736,3.65,99.10218,-2.988,-1.808,55.8,0,109.4,13.62,-2.25,62.2
"2010-12-05 01:15:00",395011,10.06,99.4,2.731,0.728,3.668,99.10359,-2.984,-1.821,55.84,0,109.4,13.62,-2.24,61.4
"2010-12-05 01:15:30",395012,10.03,100,2.801,0.762,3.846,99.10218,-2.988,-1.829,55.84,0,109.4,13.62,-2.25,62.0
"2010-12-05 01:16:00",395013,10.06,102.5,1.227,0.712,3.751,99.09481,-3.006,-1.837,55.7,0,109.4,13.62,-2.26,64.5
"2010-12-05 01:16:30",395014,9.99,103.4,2.581,0.745,3.707,99.0934,-3.01,-1.838,55.71,0,109.4,13.62,-2.27,65.4
"2010-12-05 01:17:00",395015,9.89,104.3,2.249,0.725,3.765,99.09451,-3.007,-1.828,55.75,0,109.4,13.62,-2.27,66.3
"2010-12-05 01:17:30",395016,9.85,105.5,3.065,0.663,4.063,99.09365,-3.009,-1.85,55.75,0,109.4,13.62,-2.27,67.5
"2010-12-05 01:18:00",395017,9.99,107.5,2.002,0.717,3.839,99.09225,-3.013,-1.832,55.86,0,109.4,13.62,-2.27,69.5
"2010-12-05 01:18:30",395018,10.19,109.7,1.848,0.816,3.954,99.09618,-3.003,-1.826,56.08,0,109.4,13.63,-2.26,71.7
"2010-12-05 01:19:00",395019,10.42,111.1,1.938,0.823,3.99,99.09901,-2.996,-1.834,56.27,0,109.4,13.63,-2.25,73.1
"2010-12-05 01:19:30",395020,10.6,110.7,1.637,0.834,4.135,99.10129,-2.99,-1.844,56.39,0,109.4,13.63,-2.25,72.7
"2010-12-05 01:20:00",395021,10.52,111.9,2.759,0.642,4.157,99.10326,-2.985,-1.835,56.44,0,109.4,13.63,-2.24,73.9
"2010-12-05 01:20:30",395022,10.3,111.2,2.643,0.735,4.288,99.11032,-2.967,-1.82,56.96,0,109.4,13.63,-2.23,73.2
"2010-12-05 01:21:00",395023,10.09,112.1,3.109,0.636,4.297,99.10976,-2.968,-1.824,57.06,0,109.4,13.63,-2.23,74.1
"2010-12-05 01:21:30",395024,10.05,111,3.545,0.63,4.481,99.11033,-2.967,-1.814,57.13,0,109.4,13.63,-2.23,73.0
"2010-12-05 01:22:00",395025,9.79,111.3,1.912,0.714,4.187,99.11145,-2.964,-1.814,57.13,0,109.4,13.63,-2.22,73.3
"2010-12-05 01:22:30",395026,9.75,109.7,2.817,0.746,4.288,99.1171,-2.95,-1.787,57.09,0,109.4,13.63,-2.21,71.7
"2010-12-05 01:23:00",395027,9.82,110,2.013,0.837,4.129,99.12336,-2.934,-1.787,57.09,0,109.4,13.63,-2.19,72.0
"2010-12-05 01:23:30",395028,9.87,108.7,2.89,0.742,4.344,99.12646,-2.926,-1.767,57.07,0,109.4,13.63,-2.18,70.7
"2010-12-05 01:24:00",395029,10.11,109.3,2.531,0.628,4.277,99.12901,-2.919,-1.771,57.08,0,109.4,13.63,-2.18,71.3
"2010-12-05 01:24:30",395030,10.15,109.1,3.505,0.656,4.386,99.13412,-2.906,-1.745,57.04,0,109.4,13.63,-2.16,71.1
"2010-12-05 01:25:00",395031,10.18,109.9,3.157,0.618,4.291,99.14432,-2.88,-1.757,57.06,0,109.4,13.63,-2.14,71.9
"2010-12-05 01:25:30",395032,10.24,110.8,3.218,0.644,4.462,99.14517,-2.878,-1.746,57.07,0,109.4,13.63,-2.14,72.8
"2010-12-05 01:26:00",395033,10.27,112.1,1.935,0.722,4.25,99.14489,-2.879,-1.743,57.11,0,109.4,13.63,-2.14,74.1
"2010-12-05 01:26:30",395034,10.18,112.4,1.653,0.774,4.278,99.14517,-2.878,-1.728,56.97,0,109.4,13.63,-2.14,74.4
"2010-12-05 01:27:00",395035,10.15,112.4,1.416,0.835,4.29,99.14545,-2.877,-1.717,56.81,0,109.4,13.63,-2.14,74.4
"2010-12-05 01:27:30",395036,10.25,111,3.246,0.621,4.591,99.14545,-2.877,-1.703,56.78,0,109.4,13.63,-2.14,73.0
"2010-12-05 01:28:00",395037,10.46,110.2,3.244,0.487,4.464,99.14631,-2.875,-1.686,56.71,0,109.4,13.63,-2.13,72.2
"2010-12-05 01:28:30",395038,10.5,109.2,3.453,0.648,4.388,99.15085,-2.864,-1.673,56.74,0,109.4,13.63,-2.12,71.2
"2010-12-05 01:29:00",395039,10.49,109.3,1.926,0.761,4.356,99.15452,-2.854,-1.68,56.71,0,109.4,13.63,-2.11,71.3
"2010-12-05 01:29:30",395040,10.44,109.8,3.387,0.593,4.62,99.1582,-2.845,-1.664,56.63,0,109.4,13.63,-2.10,71.8
"2010-12-05 01:30:00",395041,10.47,110.5,2.134,0.564,4.572,99.16839,-2.819,-1.661,56.66,0,109.4,13.63,-2.08,72.5
"2010-12-05 01:30:30",395042,9.96,111.8,3.01,0.774,4.415,99.17491,-2.802,-1.666,56.59,0,109.4,13.62,-2.06,73.8
"2010-12-05 01:31:00",395043,9.74,113.7,3.766,0.56,4.576,99.18002,-2.789,-1.647,56.49,0,109.4,13.62,-2.05,75.7
"2010-12-05 01:31:30",395044,9.7,115.1,2.531,0.741,4.395,99.18057,-2.788,-1.622,56.45,0,109.4,13.62,-2.05,77.1
"2010-12-05 01:32:00",395045,9.76,115,1.533,0.729,4.207,99.18086,-2.787,-1.617,56.45,0,109.4,13.62,-2.04,77.0
"2010-12-05 01:32:30",395046,9.7,112.2,3.83,0.648,4.373,99.1803,-2.789,-1.609,56.43,0,109.4,13.63,-2.05,74.2
"2010-12-05 01:33:00",395047,9.85,114.4,3.701,0.628,4.051,99.18057,-2.788,-1.611,56.44,0,109.4,13.62,-2.05,76.4
"2010-12-05 01:33:30",395048,9.82,115.2,3.407,0.695,4.153,99.18198,-2.784,-1.617,56.45,0,109.4,13.63,-2.04,77.2
"2010-12-05 01:34:00",395049,10.09,114,1.533,0.66,3.827,99.18142,-2.786,-1.608,56.51,0,109.4,13.63,-2.04,76.0
"2010-12-05 01:34:30",395050,10.08,113,3.465,0.686,3.983,99.17915,-2.792,-1.617,56.5,0,109.4,13.63,-2.05,75.0
"2010-12-05 01:35:00",395051,10.18,116.7,3.228,0.609,4.186,99.16074,-2.838,-1.629,56.57,0,109.4,13.63,-2.10,78.7
"2010-12-05 01:35:30",395052,10.27,118.6,3.466,0.651,4.465,99.15592,-2.851,-1.639,56.61,0,109.4,13.63,-2.11,80.6
"2010-12-05 01:36:00",395053,10.02,121.8,3.116,0.477,4.507,99.16951,-2.816,-1.632,56.51,0,109.3,13.63,-2.07,83.8
"2010-12-05 01:36:30",395054,9.76,123.7,2.183,0.813,4.442,99.18367,-2.78,-1.621,56.41,0,109.4,13.63,-2.04,85.7
"2010-12-05 01:37:00",395055,9.42,123.4,3.83,0.566,4.667,99.19925,-2.74,-1.612,56.19,0,109.4,13.63,-2.00,85.4
"2010-12-05 01:37:30",395056,9.4,124.4,2.083,0.757,4.564,99.2188,-2.691,-1.564,55.97,0,109.4,13.63,-1.95,86.4
"2010-12-05 01:38:00",395057,9.5,123.6,2.189,0.631,4.241,99.23495,-2.649,-1.534,55.81,0,109.4,13.63,-1.91,85.6
"2010-12-05 01:38:30",395058,9.26,123.5,2.457,0.739,4.283,99.25195,-2.606,-1.485,55.74,0,109.4,13.63,-1.86,85.5
"2010-12-05 01:39:00",395059,9.31,123,3.007,0.754,4.156,99.25308,-2.603,-1.49,55.61,0,109.4,13.63,-1.86,85.0
"2010-12-05 01:39:30",395060,9.26,118.4,2.803,0.762,4.055,99.25478,-2.599,-1.444,55.61,0,109.4,13.63,-1.86,80.4
"2010-12-05 01:40:00",395061,9.3,113.9,3.073,0.668,3.883,99.25138,-2.608,-1.438,55.58,0,109.3,13.63,-1.86,75.9
"2010-12-05 01:40:30",395062,9.35,111.6,3.593,0.676,3.815,99.23183,-2.657,-1.461,55.7,0,109.4,13.63,-1.91,73.6
"2010-12-05 01:41:00",395063,9.55,111.2,3.626,0.675,3.787,99.2103,-2.712,-1.494,55.81,0,109.4,13.64,-1.97,73.2
"2010-12-05 01:41:30",395064,9.8,113.7,3.853,0.548,4.088,99.18537,-2.776,-1.5,55.93,0,109.4,13.64,-2.03,75.7
"2010-12-05 01:42:00",395065,9.84,117.1,2.853,0.625,3.977,99.18395,-2.779,-1.55,56.08,0,109.4,13.63,-2.04,79.1
"2010-12-05 01:42:30",395066,10.04,116.5,3.355,0.686,4.201,99.18339,-2.781,-1.537,56.16,0,109.4,13.64,-2.04,78.5
"2010-12-05 01:43:00",395067,10.1,115.4,4.458,0.675,4.219,99.18395,-2.779,-1.577,56.15,0,109.4,13.64,-2.04,77.4
"2010-12-05 01:43:30",395068,9.93,116.8,2.924,0.727,4.357,99.18621,-2.774,-1.568,56.06,0,109.4,13.64,-2.03,78.8
"2010-12-05 01:44:00",395069,10.29,113.7,2.783,0.597,4.072,99.19046,-2.763,-1.556,56.06,0,109.4,13.64,-2.02,75.7
"2010-12-05 01:44:30",395070,10.17,112,3.233,0.762,4.066,99.18791,-2.769,-1.557,56.08,0,109.4,13.64,-2.03,74.0
"2010-12-05 01:45:00",395071,10.31,111.9,2.807,0.784,3.876,99.18395,-2.779,-1.564,56.17,0,109.4,13.64,-2.04,73.9
"2010-12-05 01:45:30",395072,10.18,112.3,2.707,0.762,4.058,99.17913,-2.792,-1.59,56.26,0,109.4,13.63,-2.05,74.3
"2010-12-05 01:46:00",395073,10.26,110.5,3.699,0.63,3.838,99.15504,-2.853,-1.611,56.35,0,109.4,13.63,-2.11,72.5
"2010-12-05 01:46:30",395074,9.88,111.8,2.978,0.787,3.972,99.14654,-2.875,-1.627,56.47,0,109.4,13.63,-2.13,73.8
"2010-12-05 01:47:00",395075,9.9,111.2,3.313,0.758,4.222,99.12869,-2.92,-1.678,56.65,0,109.4,13.63,-2.18,73.2
"2010-12-05 01:47:30",395076,9.93,110,3.903,0.663,4.268,99.11765,-2.948,-1.703,56.75,0,109.4,13.63,-2.21,72.0